Regional Weather Roundup
Issued by NWS Cleveland, OH

Home | Current Version | Previous Version | Text Only | Print | Product List | Glossary Off
Versions: 1 2 3 4 5 6 7 8 9 10 11 12 13 14 15 16 17 18 19 20 21 22 23 24 25 26 27 28 29 30 31 32 33 34 35 36 37 38 39 40 41 42 43 44 45 46 47 48 49 50

000
ASUS41 KCLE 270610
RWRCLE
OHIO REGIONAL WEATHER ROUNDUP
NATIONAL WEATHER SERVICE CLEVELAND, OH
200 AM EDT WED AUG 27 2014

NOTE: "FAIR" INDICATES FEW OR NO CLOUDS BELOW 12,000 FEET WITH NO
SIGNIFICANT WEATHER AND/OR OBSTRUCTIONS TO VISIBILITY.

OHZ001>008-015>018-024>027-034-035-043-044-270700-
   NORTHWEST OHIO

CITY           SKY/WX    TMP DP  RH WIND       PRES   REMARKS
DEFIANCE       FAIR      71  68  90 CALM      30.10R FOG
FINDLAY        FAIR      72  69  90 W6        30.08S
TOLEDO EXPRESS FAIR      71  69  93 NW3       30.08R
TOLEDO EXEC    FAIR      73  68  84 N6        30.09R
LIMA           FAIR      69  66  90 CALM      30.10R
$$

OHZ009>014-019>023-028>033-038-089-270700-
   NORTHEAST OHIO

CITY           SKY/WX    TMP DP  RH WIND       PRES   REMARKS
CLE-HOPKINS    FAIR      70  68  93 S5        30.09S
CLE-LAKEFRONT  MOCLDY    73  69  87 N6        30.07R
CUY CO. ARPT   NOT AVBL
LORAIN-ELYRIA  HAZE      72  67  84 SW5       30.08S VSB 1/2
ASHTABULA      CLOUDY    71  68  90 W6        30.09R
AKRON-CANTON   FAIR      72  66  81 SW3       30.10S
WOOSTER        FAIR      71  68  90 SW5       30.10R
MANSFIELD      FAIR      73  69  87 SW6       30.10S
YOUNGSTOWN     FAIR      70  67  90 CALM      30.10R
$$

OHZ042-051>053-060>062-070>072-077>081-270700-
  SOUTHWEST OHIO

CITY           SKY/WX    TMP DP  RH WIND       PRES   REMARKS
CINC-COVINGTON FAIR      73  69  87 CALM      30.10F
CINC-LUNKEN    FAIR      70  69  97 SE3       30.10S FOG
HAMILTON       FAIR      70  69  97 CALM      30.10F
DAYTON         FAIR      71  68  90 CALM      30.11S
WRIGHT-PAT AFB FAIR      70  69  95 CALM      30.10S
DAYTON GENERAL FAIR      72  70  93 S5        30.10S
WILMINGTON     FAIR      69  66  90 S3        30.11S
$$

OHZ036-037-039>041-045>050-054>059-063>069-073>076-082>088-270700-
  CENTRAL AND SOUTHEAST OHIO

CITY           SKY/WX    TMP DP  RH WIND       PRES   REMARKS
COLUMBUS       FAIR      77  66  68 CALM      30.09S
OSU AIRPORT    FAIR      74  68  81 SW5       30.10R
BOLTON FIELD   FAIR      70  68  93 SW5       30.10F
RICKENBACK AFB FAIR      70  64  79 S5        30.09S
NEWARK         FAIR      69  66  90 SE3       30.09S
MARION         FAIR      71  68  90 SW5       30.10R
LANCASTER      FAIR      67  65  93 CALM      30.11R
ZANESVILLE     FAIR      68  65  90 CALM      30.10S
NEW PHILLY     FAIR      69  68  96 CALM      30.10S
$$



USA.gov is the U.S. government's official web portal to all federal, state and local government web resources and services.